Weather History for Bradshaw AFB, HI

Change the Weather History Date:

Wednesday, October 9, 2013

  Actual Average Record
Temperature  
Mean Temperature 56 °F -  
Max Temperature 67 °F 69 °F 84 °F (1973)
Min Temperature 45 °F 49 °F 38 °F (1973)
Degree Days  
Heating Degree Days 9    
Growing Degree Days 6 (Base 50)    
Moisture  
Dew Point 49 °F    
Average Humidity 77    
Maximum Humidity 92    
Minimum Humidity 54    
Precipitation  
Precipitation 0.00 in - - ()
Sea Level Pressure  
Sea Level Pressure 30.33 in    
Wind  
Wind Speed 5 mph (SSE)    
Max Wind Speed 12 mph    
Max Gust Speed 20 mph    
Visibility 12 miles    
Events      
Averages and records for this station are not official NWS values.
T = Trace of Precipitation, MM = Missing Value Source: NWS Daily Summary

Daily Weather History Graph

Daily Weather History Graph

Search for Another Location

Airport:

Trip Planner

Search our weather history database for the weather conditions in past years. The results will help you decide how hot, cold, wet, or windy it might be!

Date:

Astronomy

Oct. 09, 2013 Rise Set
Actual Time 6:15 AM HST 6:03 PM HST
Civil Twilight 5:53 AM HST 6:25 PM HST
Nautical Twilight 5:27 AM HST 6:50 PM HST
Astronomical Twilight 5:02 AM HST 7:16 PM HST
Moon 10:51 AM HST (10/9) 10:18 PM HST (10/9)
Length of Visible Light 12h 32m
Length of Day
11h 47m
Waxing Crescent, 27% of the Moon is Illuminated
Oct 9
Waxing Crescent
Oct 11
First Quarter
Oct 18
Full
Oct 26
Last Quarter
Nov 3
New

Hourly Weather History & Observations

Time (HST) Temp. Windchill Dew Point Humidity Pressure Visibility Wind Dir Wind Speed Gust Speed Precip Events Conditions
12:06 AM 53.6 °F - 50.0 °F 88% 30.35 in 12.0 mi ESE 3.5 mph - N/A   Mostly Cloudy
12:36 AM 53.6 °F - 50.0 °F 88% 30.35 in 12.0 mi ESE 4.6 mph - N/A   Mostly Cloudy
12:41 AM 53.6 °F - 50.0 °F 88% 30.35 in 12.0 mi South 4.6 mph - N/A   Mostly Cloudy
12:56 AM 53.6 °F - 51.3 °F 92% 30.35 in 12.0 mi SSW 3.5 mph - N/A   Mostly Cloudy
1:06 AM 53.6 °F - 50.0 °F 88% 30.35 in 12.0 mi SE 2.3 mph - N/A   Mostly Cloudy
1:26 AM 53.6 °F - 50.0 °F 88% 30.33 in 12.0 mi WSW 3.5 mph - N/A   Mostly Cloudy
1:56 AM 52.2 °F - 46.4 °F 81% 30.33 in 12.0 mi East 3.5 mph - N/A   Partly Cloudy
2:56 AM 49.1 °F - 44.4 °F 84% 30.32 in 12.0 mi ESE 4.6 mph - N/A   Partly Cloudy
3:26 AM 48.2 °F - 44.6 °F 87% 30.31 in 12.0 mi NNE 4.6 mph - N/A   Mostly Cloudy
3:31 AM 48.2 °F - 44.6 °F 87% 30.31 in 12.0 mi NNE 4.6 mph - N/A   Mostly Cloudy
3:41 AM 50.0 °F - 46.4 °F 87% 30.31 in 12.0 mi NE 3.5 mph - N/A   Mostly Cloudy
3:46 AM 48.2 °F - 44.6 °F 87% 30.31 in 12.0 mi ESE 4.6 mph - N/A   Scattered Clouds
3:56 AM 48.6 °F - 43.3 °F 82% 30.32 in 12.0 mi ESE 5.8 mph - N/A   Partly Cloudy
4:56 AM 45.3 °F 44.0 °F 41.4 °F 86% 30.32 in 12.0 mi East 3.5 mph - N/A   Clear
5:56 AM 45.1 °F 43.7 °F 38.1 °F 76% 30.32 in 12.0 mi ESE 3.5 mph - N/A   Clear
6:56 AM 49.8 °F - 41.9 °F 74% 30.33 in 7.0 mi East 2.3 mph - N/A   Partly Cloudy
7:56 AM 57.4 °F - 48.7 °F 73% 30.34 in 12.0 mi NW 1.2 mph - N/A   Partly Cloudy
8:56 AM 60.1 °F - 52.2 °F 75% 30.36 in 12.0 mi South 10.4 mph 18.4 mph N/A   Clear
9:56 AM 63.5 °F - 51.4 °F 65% 30.37 in 12.0 mi SSE 9.2 mph 16.1 mph N/A   Clear
10:56 AM 64.0 °F - 49.3 °F 59% 30.35 in 12.0 mi SE 5.8 mph - N/A   Partly Cloudy
11:56 AM 67.8 °F - 50.7 °F 54% 30.33 in 12.0 mi WSW 11.5 mph 18.4 mph N/A   Scattered Clouds
12:56 PM 66.6 °F - 52.2 °F 60% 30.31 in 12.0 mi West 5.8 mph 17.3 mph N/A   Mostly Cloudy
1:56 PM 66.9 °F - 53.2 °F 61% 30.29 in 12.0 mi WSW 9.2 mph 19.6 mph N/A   Partly Cloudy
2:56 PM 66.9 °F - 53.6 °F 62% 30.28 in 12.0 mi WSW 8.1 mph 17.3 mph N/A   Scattered Clouds
3:31 PM 66.2 °F - 51.8 °F 60% 30.28 in 12.0 mi West 6.9 mph 15.0 mph N/A   Mostly Cloudy
3:56 PM 65.3 °F - 53.1 °F 65% 30.28 in 12.0 mi WSW 3.5 mph - N/A   Mostly Cloudy
4:56 PM 61.0 °F - 52.5 °F 74% 30.30 in 12.0 mi SSE 4.6 mph - N/A   Overcast
5:26 PM 60.8 °F - 51.8 °F 72% 30.31 in 12.0 mi West 8.1 mph - N/A   Overcast
5:56 PM 59.7 °F - 52.5 °F 77% 30.31 in 12.0 mi West 6.9 mph - N/A   Mostly Cloudy
6:06 PM 59.0 °F - 51.8 °F 77% 30.32 in 12.0 mi West 8.1 mph - N/A   Mostly Cloudy
6:56 PM 57.6 °F - 52.3 °F 83% 30.33 in 12.0 mi West 4.6 mph - N/A   Overcast
7:56 PM 57.6 °F - 51.3 °F 79% 30.34 in 12.0 mi SE 4.6 mph - N/A   Mostly Cloudy
8:06 PM 57.2 °F - 51.8 °F 82% 30.34 in 12.0 mi SE 3.5 mph - N/A   Mostly Cloudy
8:56 PM 55.4 °F - 50.2 °F 83% 30.35 in 12.0 mi SE 5.8 mph - N/A   Mostly Cloudy
9:56 PM 55.8 °F - 49.6 °F 80% 30.35 in 12.0 mi SE 1.2 mph - N/A   Mostly Cloudy
10:56 PM 54.5 °F - 48.4 °F 80% 30.34 in 12.0 mi NNE 2.3 mph - N/A   Scattered Clouds
11:56 PM 55.8 °F - 48.9 °F 78% 30.32 in 12.0 mi ESE 1.2 mph - N/A   Overcast